Location: Maccacari
(45.1333°N, 11.1333°E)
Time: 15:15:14
(UTC+00:00)

S-56A Canister/Altair - Pass Details

Date: 26 January 2021
Orbit: 631 x 2501 km, 38.9° (Epoch: 01 March)

Event Time Altitude Azimuth Distance (km) Brightness Sun altitude
Rises 23:55:57 0° 211° (SSW) 3,406 - -62.9°
Reaches altitude 10° 23:59:43 10° 188° (S) 2,233 - -62.8°
Maximum altitude 00:02:26 15° 154° (SSE) 1,810 - -62.6°
Drops below altitude 10° 00:04:58 10° 120° (ESE) 2,033 - -62.5°
Sets 00:08:06 0° 95° (E) 2,914 - -62.3°
